Flag for Germany Weather past 2 weeks in Rastatt, Baden-Württemberg, Germany

Now
55 °F

Passing clouds.


Feels Like: 53 °F
Forecast: 40 / 55 °F
Wind: 9 mph from North

Location: Karlsruhe - Baden Wurttemberg


UV Index: 3 (Moderate)

Visibility: N/A


Pressure: 30.21 "Hg

Humidity: 38%

Dew point: 30 °F

Location of RastattLocation

Historic Weather in Rastatt

°F

Rastatt temperature yesterday

Maximum temperature yesterday: 57 °F (at 3:20 PM)
Minimum temperature yesterday: 34 °F (at 5:20 AM)
Average temperature yesterday: 47 °F

Past Weeks' High & Low Weather Summary

 TemperatureHumidityPressure
High75 °F (Apr 3, 3:50 PM)94% (Apr 5, 10:50 PM)30.36 "Hg (Apr 5, 10:50 PM)
Low34 °F (Apr 16, 5:20 AM)26% (Apr 13, 4:20 PM)29.62 "Hg (Apr 3, 2:20 PM)
Average55 °F58%30.04 "Hg
* Reported Apr 2 10:20 AM — Apr 17 10:50 AM, Rastatt, Weather by CustomWeather, © 2014

Note: Actual official high and low records may vary slightly from our data, if they occured in-between our weather recording intervals... More about our weather records

Advertising

Historic Weather Conditions — Data for Previous 24 hours

 ConditionsComfort  
Time TempWeatherWind HumidityBarometerVisibility
10:50 AM
Apr 17
52 °FSunny.10 mph47%30.21 "Hg10 mi
10:20 AM50 °FPassing clouds.7 mph54%30.24 "HgN/A
9:50 AM48 °FSunny.8 mph54%30.24 "Hg10 mi
9:20 AM45 °FSunny.6 mph66%30.24 "Hg10 mi
8:50 AM41 °FSunny.8 mph70%30.24 "Hg10 mi
8:20 AM39 °FSunny.8 mph75%30.27 "Hg10 mi
7:50 AM37 °FSunny.6 mph81%30.27 "Hg10 mi
7:20 AM36 °FClear.6 mph87%30.27 "Hg10 mi
6:50 AM36 °FClear.5 mph87%30.24 "Hg10 mi
6:20 AM36 °FClear.3 mph81%30.24 "Hg10 mi
5:50 AM34 °FClear.3 mph81%30.27 "Hg10 mi
5:20 AM37 °FClear.5 mph81%30.27 "Hg10 mi
4:50 AM36 °FClear.3 mph87%30.27 "Hg10 mi
11:20 PM
Apr 16
41 °FClear.5 mph61%30.33 "Hg10 mi
10:50 PM43 °FClear.6 mph61%30.33 "Hg10 mi
10:20 PM45 °FClear.5 mph53%30.33 "Hg10 mi
9:50 PM46 °FClear.3 mph50%30.33 "Hg10 mi
9:20 PM46 °FClear.3 mph50%30.33 "Hg10 mi
8:50 PM48 °FSunny.5 mph43%30.33 "Hg10 mi
8:20 PM48 °FSunny.6 mph43%30.33 "Hg10 mi
7:50 PM54 °FSunny.10 mph33%30.33 "Hg10 mi
7:20 PM55 °FSunny.13 mph31%30.30 "Hg10 mi
6:50 PM55 °FSunny.14 mph33%30.30 "Hg10 mi
6:20 PM55 °FPassing clouds.13 mph31%30.33 "HgN/A
5:50 PM57 °FSunny.15 mph29%30.33 "Hg10 mi
5:20 PM57 °FSunny.17 mph29%30.33 "Hg10 mi
4:50 PM57 °FSunny.18 mph29%30.33 "Hg10 mi
4:20 PM57 °FPassing clouds.15 mph29%30.33 "HgN/A
3:50 PM57 °FPassing clouds.16 mph31%30.33 "HgN/A
3:20 PM57 °FSunny.17 mph33%30.36 "Hg10 mi
2:50 PM55 °FSunny.17 mph36%30.36 "Hg10 mi
2:20 PM55 °FPassing clouds.16 mph36%30.36 "HgN/A
1:50 PM55 °FSunny.17 mph36%30.36 "Hg10 mi
1:20 PM54 °FSunny.16 mph41%30.36 "Hg10 mi
12:50 PM54 °FPassing clouds.14 mph41%30.36 "HgN/A
12:20 PM54 °FPassing clouds.14 mph44%30.36 "HgN/A
Weather by CustomWeather, © 2014

See weather overview